www.pogodaiklimat.ru

Погода и климат >> Архив погоды >> Норвегия >> Юввассу


ПОГОДА в Юввассу

  • Прогноз погоды в Юввассу
  • Монитор погоды в Юввассу

АРХИВ ПОГОДЫ в Юввассу

Время (UTC), дата Ветер
(напр.,м/с)
 
Видим.   Явления Облачность Т
(С)
Тd
(С)
f
(%)
Тe
(С)
Тes
(С)
Комфортность P
(гПа)
Po
(гПа)
Тmin
(С)
Tmax
(С)
R
(мм)
R24
(мм)
S
(см)
19 16.01 З 9-11
{11}
н/о н/о -14.1 -25 -25 986.7 987.0
20 16.01 З 8-11
{11}
н/о н/о -14.8 -26 -26 987.5 988.0
21 16.01 З 6-11
{12}
н/о н/о -14.8 -24 -24 988.0
22 16.01 З 8-9
{11}
н/о н/о -15.0 -26 -26 988.2 988.0
23 16.01 З 7-9
{11}
н/о н/о -15.0 -25 -25 988.5 989.0
00 17.01 З 11-14
{18}
н/о н/о -15.1 -28 -28 988.0
01 17.01 СЗ 11-17
{19}
н/о н/о -14.9 -27 -27 988.5 989.0
02 17.01 З 8-17
{17}
н/о н/о -14.7 -26 -26 989.3 989.0
03 17.01 СЗ 10-12
{14}
н/о н/о -15.0 -27 -27 990.0
04 17.01 СЗ 7 н/о н/о -15.2 991.5 992.0
05 17.01 СЗ 7-10
{11}
н/о н/о -15.2 -26 -26 992.2 992.0
06 17.01 СЗ 8-9
{19}
н/о н/о -15.3 -26 -26 993.0 -15.3 -13.1 90
07 17.01 С 8-12
{13}
н/о н/о -15.5 -27 -27 994.5 995.0
08 17.01 С 10-13
{13}
н/о н/о -15.8 -28 -28 996.4 996.0
09 17.01 С 8-10
{13}
н/о н/о -16.2 -27 -27 998.0
10 17.01 С 5-8
{10}
н/о н/о -16.6 -26 -26 999.5 1000.0
11 17.01 СЗ 4-6
{10}
н/о н/о -16.1 -24 -24 1000.1 1000.0
12 17.01 СЗ 9-9
{13}
н/о н/о -15.5 -27 -27 1000.1 1000.0
13 17.01 СЗ 10-13
{18}
н/о н/о -14.7 -27 -27 999.9 1000.0
14 17.01 СЗ 11-13
{16}
н/о н/о -14.5 -27 -27 999.7 1000.0
15 17.01 З 11-14
{15}
н/о н/о -14.5 -27 -27 1000.5 1001.0
16 17.01 СЗ 12-13
{16}
н/о н/о -14.6 -27 -27 1001.6 1002.0
17 17.01 СЗ 14-15
{17}
н/о н/о -14.9 -29 -29 1002.0 1002.0
18 17.01 СЗ 13-18
{18}
н/о н/о -15.3 -29 -29 1003.0 1003.0 -16.7 -14.5
19 17.01 СЗ 13-16
{18}
н/о н/о -15.3 -29 -29 1003.2 1003.0
20 17.01 СЗ 10-16
{19}
н/о н/о -15.4 -28 -28 1004.3 1004.0
21 17.01 З 9-13
{14}
н/о н/о -15.5 -27 -27 1005.5 1006.0
22 17.01 СЗ 10-13
{15}
н/о н/о -15.9 -28 -28 1006.1 1006.0
23 17.01 З 11-14
{15}
н/о н/о -16.1 -29 -29 1005.9 1006.0
00 18.01 З 10-12
{19}
н/о н/о -16.4 -29 -29 1006.6 1007.0
01 18.01 З 13-15
{15}
н/о н/о -16.1 -30 -30 1005.9 1006.0
02 18.01 З 17-16
{23}
н/о н/о -15.4 -30 -30 1004.1 1004.0
03 18.01 З 17-22
{23}
н/о н/о -15.1 -30 -30 1004.1 1004.0
04 18.01 З 17-21
{21}
н/о н/о -14.8 -29 -29 1004.1 1004.0
05 18.01 З 16-19
{19}
н/о н/о -14.6 -29 -29 1004.6 1005.0
06 18.01 З 15-18
{23}
н/о н/о -14.5 -28 -28 1005.0 1005.0 -16.4 -14.5 90
07 18.01 З 13-20
{21}
н/о н/о -14.7 -28 -28 1005.7 1006.0
08 18.01 З 15-17
{19}
н/о н/о -14.8 -29 -29 1006.7 1007.0
09 18.01 З 11-19
{19}
н/о н/о -14.6 -27 -27 1008.4 1008.0
10 18.01 З 12-16
{16}
н/о н/о -14.4 -27 -27 1008.4 1008.0
11 18.01 З 11-16
{16}
н/о н/о -13.9 -26 -26 1008.5 1009.0
12 18.01 З 10-19
{21}
н/о н/о -13.9 -26 -26 1009.1 1009.0
13 18.01 З 9-12
{12}
н/о н/о -14.0 -25 -25 1009.5 1010.0
14 18.01 З 8-11
{11}
н/о н/о -14.3 -25 -25 1009.8 1010.0
15 18.01 З 9-9
{11}
н/о н/о -14.4 -26 -26 1010.2 1010.0
16 18.01 З 9-10
{11}
н/о н/о -14.6 -26 -26 1010.4 1010.0
17 18.01 З 8-12
{12}
н/о н/о -14.2 -25 -25 1010.2 1010.0
18 18.01 З 11-10
{13}
н/о н/о -13.5 -25 -25 1009.4 1009.0 -14.9 -13.5
19 18.01 З 11-13
{14}
н/о н/о -13.2 -25 -25 1009.0 1009.0
20 18.01 З 13-13
{14}
н/о н/о -13.0 -26 -26 1009.0 1009.0
21 18.01 З 13-14
{16}
н/о н/о -12.5 -25 -25 1008.6 1009.0
22 18.01 З 15-15
{17}
н/о н/о -12.0 -25 -25 1007.7 1008.0
23 18.01 З 15-18
{19}
н/о н/о -11.2 -24 -24 1006.9 1007.0
00 19.01 З 19-18
{23}
н/о н/о -10.6 -24 -24 1005.8 1006.0
01 19.01 З 20-21
{24}
н/о н/о -10.4 -24 -24 1005.0 1005.0
02 19.01 З 21-23
{27}
н/о н/о -10.7 -25 -25 1004.7 1005.0
03 19.01 З 23-27
{31}
н/о н/о -11.0 -26 -26 1004.3 1004.0
04 19.01 З 23-26
{28}
н/о н/о -10.5 -25 -25 1003.6 1004.0
05 19.01 З 22-29
{30}
н/о н/о -10.4 -24 -24 1003.4 1003.0
06 19.01 З 21-28
{31}
н/о н/о -10.3 -24 -24 1004.2 1004.0 -13.5 -10.3 90
07 19.01 З 17-23
{23}
н/о н/о -10.4 -23 -23 1005.3 1005.0
08 19.01 З 18-19
{21}
н/о н/о -10.4 -23 -23 1005.3 1005.0
09 19.01 З 16-21
{21}
н/о н/о -10.6 -23 -23 1006.6 1007.0
10 19.01 З 17-20
{21}
н/о н/о -11.0 -24 -24 1007.5 1008.0
11 19.01 З 14-19
{19}
н/о н/о -11.4 -24 -24 1008.5 1009.0
12 19.01 З 16-17
{23}
н/о н/о -12.6 -26 -26 1009.6 1010.0
13 19.01 З 15-20
{20}
н/о н/о -12.9 -26 -26 1009.7 1010.0
14 19.01 З 13-18
{20}
н/о н/о -13.5 -26 -26 1011.1 1011.0
15 19.01 З 13-16
{17}
н/о н/о -14.1 -27 -27 1011.6 1012.0
16 19.01 З 12-15
{15}
н/о н/о -14.3 -27 -27 1012.3 1012.0
17 19.01 З 11-13
{14}
н/о н/о -14.5 -27 -27 1012.9 1013.0
18 19.01 З 9-14
{20}
н/о н/о -14.3 -26 -26 1013.5 1014.0 -14.5 -10.3
19 19.01 З 11-13
{16}
н/о н/о -14.3 -27 -27 1013.5 1014.0
20 19.01 З 11-13
{15}
н/о н/о -14.5 -27 -27 1014.1 1014.0
21 19.01 З 12-18
{18}
н/о н/о -14.9 -28 -28 1014.4 1014.0
22 19.01 З 11-16
{16}
н/о н/о -15.2 -28 -28 1015.2 1015.0
23 19.01 З 8-14
{14}
н/о н/о -15.6 -27 -27 1016.6 1017.0
00 20.01 З 6-8
{18}
н/о н/о -15.7 -25 -25 1016.8 1017.0
01 20.01 СЗ 9-7
{13}
н/о н/о -15.9 -28 -28 1017.0 1017.0
02 20.01 З 9-11
{11}
н/о н/о -16.4 -28 -28 1017.8 1018.0
03 20.01 СЗ 4-11
{11}
н/о н/о -16.5 -25 -25 1018.3 1018.0
04 20.01 З 3 н/о н/о -16.6 1018.7 1019.0
05 20.01 З 6-8
{9}
н/о н/о -16.2 -26 -26 1018.2 1018.0
06 20.01 СЗ 4-8
{13}
н/о н/о -15.9 -24 -24 1018.0 1018.0 -16.7 -14.2 90
07 20.01 СЗ 2-7
{7}
н/о н/о -15.8 -21 -21 1018.3 1018.0
08 20.01 З 6-3
{7}
н/о н/о -15.7 -25 -25 1018.5 1019.0
09 20.01 З 6-6
{8}
н/о н/о -14.8 -24 -24 1018.1 1018.0
10 20.01 З 6-8
{8}
н/о н/о -13.4 -23 -23 1016.8 1017.0
11 20.01 З 4-7
{7}
н/о н/о -12.9 -20 -20 1016.3 1016.0
12 20.01 З 4-5
{8}
н/о н/о -12.8 -20 -20 1016.2 1016.0
13 20.01 ЮЗ 8-6
{11}
н/о н/о -13.0 -23 -23 1015.8 1016.0
14 20.01 ЮЗ 9-11
{12}
н/о н/о -13.3 -24 -24 1015.9 1016.0
15 20.01 ЮЗ 10-13
{14}
н/о н/о -11.4 -22 -22 1013.7 1014.0
16 20.01 ЮЗ 8-14
{14}
н/о н/о -11.3 -21 -21 1013.6 1014.0
17 20.01 ЮЗ 9-14
{14}
н/о н/о -9.7 -19 -19 1011.8 1012.0
18 20.01 З 7-13
{16}
н/о н/о -9.6 -18 -18 1011.3 1011.0 -15.9 -9.4
19 20.01 ЮЗ 8-11
{14}
н/о н/о -9.7 -19 -19 1011.1 1011.0
20 20.01 ЮЗ 8-12
{12}
н/о н/о -10.1 -19 -19 1011.2 1011.0
21 20.01 ЮЗ 4-13
{13}
н/о н/о -9.2 -15 -15 1010.1 1010.0
22 20.01 ЮЗ 7-10
{11}
н/о н/о -9.5 -18 -18 1010.0 1010.0
23 20.01 ЮЗ 6-11
{12}
н/о н/о -8.9 -17 -17 1009.1 1009.0
00 21.01 ЮЗ 6-12
{14}
н/о н/о -9.2 -17 -17 1008.8 1009.0
01 21.01 ЮЗ 8-11
{13}
н/о н/о -9.4 -18 -18 1008.9 1009.0
02 21.01 З 8-13
{13}
н/о н/о -9.6 -19 -19 1008.9 1009.0
03 21.01 ЮЗ 12-12
{15}
н/о н/о -9.6 -20 -20 1008.6 1009.0
04 21.01 З 15-14
{17}
н/о н/о -9.9 -22 -22 1008.9 1009.0
05 21.01 З 15-18
{18}
н/о н/о -10.3 -22 -22 1009.5 1010.0
06 21.01 З 12-19
{19}
н/о н/о -10.4 -22 -22 1010.5 1011.0 -10.4 -8.9 90
07 21.01 З 12-18
{18}
н/о н/о -10.8 -22 -22 1011.5 1012.0
08 21.01 З 10-14
{14}
н/о н/о -11.0 -22 -22 1012.7 1013.0
09 21.01 З 11-11
{12}
н/о н/о -11.5 -23 -23 1013.1 1013.0
10 21.01 З 7-12
{12}
н/о н/о -11.5 -21 -21 1013.9 1014.0
11 21.01 З 8-7
{10}
н/о н/о -11.8 -22 -22 1013.9 1014.0
12 21.01 З 5-11
{18}
н/о н/о -12.1 -20 -20 1014.2 1014.0
13 21.01 З 6-6
{8}
н/о н/о -11.7 -20 -20 1013.6 1014.0
14 21.01 З 4-6
{6}
н/о н/о -13.1 -20 -20 1014.8 1015.0
15 21.01 СЗ 2-4
{4}
н/о н/о -13.8 -19 -19 1015.3 1015.0
16 21.01 штиль 0-2
{2}
н/о н/о -14.0 -14 -14 1015.4 1015.0
17 21.01 З 2-1
{3}
н/о н/о -14.4 -19 -19 1015.6 1016.0
18 21.01 Ю 1-4
{8}
н/о н/о -14.4 -17 -17 1015.1 1015.0 -14.5 -10.4
19 21.01 штиль 0-1
{2}
н/о н/о -14.0 -14 -14 1014.4 1014.0
20 21.01 Ю 2
{2}
н/о н/о -14.1 -19 -19 1013.9 1014.0
21 21.01 штиль 0-2
{2}
н/о н/о -13.8 -14 -14 1013.0 1013.0
22 21.01 СЗ 1
{2}
н/о н/о -14.2 -17 -17 1013.0 1013.0
23 21.01 В 1-4
{4}
н/о н/о -13.5 -16 -16 1011.7 1012.0
00 22.01 -2
{4}
н/о н/о -13.3 1011.1 1011.0
01 22.01 СЗ 1-1
{4}
н/о н/о -12.9 -15 -15 1010.2 1010.0
02 22.01 штиль 0-3
{3}
н/о н/о -12.6 -13 -13 1009.5 1010.0
03 22.01 ЮЗ 1-1
{2}
н/о н/о -12.5 -15 -15 1008.9 1009.0
04 22.01 штиль 0-1
{1}
н/о н/о -12.8 -13 -13 1008.5 1009.0
05 22.01 штиль 0-1
{1}
н/о н/о -12.6 -13 -13 1007.9 1008.0
06 22.01 ЮЗ 3-1
{5}
н/о н/о -12.4 -18 -18 1007.5 1008.0 -14.4 -12.4 90
07 22.01 Ю 1-7
{7}
н/о н/о -12.9 -15 -15 1007.7 1008.0
08 22.01 Ю 2-1
{4}
н/о н/о -12.6 -17 -17 1007.2 1007.0
09 22.01 Ю 3-5
{5}
н/о н/о -12.1 -18 -18 1006.4 1006.0
10 22.01 Ю 5-4
{7}
н/о н/о -11.9 -20 -20 1005.8 1006.0
11 22.01 Ю 6-7
{8}
н/о н/о -11.6 -20 -20 1005.2 1005.0
12 22.01 Ю 7-9
{10}
н/о н/о -11.0 -20 -20 1004.2 1004.0
13 22.01 Ю 7-7
{10}
н/о н/о -11.1 -20 -20 1003.8 1004.0
14 22.01 ЮЗ 4-9
{10}
н/о н/о -11.7 -19 -19 1004.1 1004.0
15 22.01 Ю 6-3
{9}
н/о н/о -11.8 -20 -20 1003.6 1004.0
16 22.01 Ю 6-8
{9}
н/о н/о -12.0 -21 -21 1003.4 1003.0
17 22.01 Ю 6-10
{10}
н/о н/о -12.6 -22 -22 1003.9 1004.0
18 22.01 Ю 6-8
{10}
н/о н/о -13.5 -23 -23 1004.3 1004.0 -13.5 -10.8
19 22.01 Ю 4-7
{7}
н/о н/о -13.1 -20 -20 1003.8 1004.0
20 22.01 Ю 2-7
{9}
н/о н/о -12.0 -17 -17 1002.9 1003.0
21 22.01 Ю 5-6
{9}
н/о н/о -13.2 -22 -22 1003.9 1004.0
22 22.01 Ю 2-8
{8}
н/о н/о -12.6 -17 -17 1003.5 1004.0
23 22.01 ЮВ 4-7
{8}
н/о н/о -12.0 -19 -19 1002.8 1003.0
00 23.01 Ю 6-6
{10}
н/о н/о -12.1 -21 -21 1002.9 1003.0
01 23.01 З 1-8
{9}
н/о н/о -12.5 -15 -15 1003.1 1003.0
02 23.01 Ю 3-4
{5}
н/о н/о -12.5 -19 -19 1003.0 1003.0
03 23.01 штиль 0-3
{6}
н/о н/о -13.1 -13 -13 1003.8 1004.0
04 23.01 В 1 н/о н/о -12.5 1003.3 1003.0
05 23.01 штиль 0-2
{2}
н/о н/о -12.2 -12 -12 1003.1 1003.0
06 23.01 штиль 0-3
{9}
н/о н/о -12.4 -12 -12 1003.4 1003.0 -13.5 -11.2 90
07 23.01 штиль 0-1
{1}
н/о н/о -12.5 -13 -13 1003.9 1004.0
08 23.01 В 1-1
{2}
н/о н/о -11.9 -14 -14 1003.8 1004.0
09 23.01 Ю 3-3
{4}
н/о н/о -11.6 -17 -17 1003.6 1004.0
10 23.01 Ю 1-4
{4}
н/о н/о -12.0 -14 -14 1004.2 1004.0
11 23.01 СЗ 1-3
{3}
н/о н/о -11.2 -13 -13 1003.6 1004.0
12 23.01 штиль 0-1
{4}
н/о н/о -10.2 -10 -10 1002.8 1003.0
13 23.01 ЮВ 1-2
{3}
н/о н/о -10.7 -13 -13 1003.4 1003.0
14 23.01 В 2
{3}
н/о н/о -10.9 -15 -15 1003.7 1004.0
15 23.01 Ю 3-3
{6}
н/о н/о -11.6 -17 -17 1004.5 1005.0
16 23.01 ЮЗ 3-8
{9}
н/о н/о -11.2 -17 -17 1004.7 1005.0
17 23.01 ЮЗ 2-4
{5}
н/о н/о -11.6 -16 -16 1005.1 1005.0
18 23.01 ЮВ 1-5
{9}
н/о н/о -11.7 -14 -14 1005.4 1005.0 -12.5 -9.8
19 23.01 Ю 5-3
{7}
н/о н/о -12.4 -20 -20 1005.7 1006.0

 

Местоположение метеостанции Юввассу (Норвегия): широта 61.68 долгота 8.37 высота над уровнем моря 1894 м.

В архиве по умолчанию представлена погода в Юввассу за последнюю неделю. Архивные данные за месяц целиком и за предыдущие месяцы, начиная с января 2011 года, Вы можете получить, выбрав интересующий диапазон дат из раскрывающегося списка и нажав кнопку "Ввод!".


*Определитесь, кто Вы:
робот инопланетянин человек

Внимание! Время в таблицах - всемирное. Для получения местного времени необходимо прибавить поправку, которая равна 1 ч.

Смотрите также архив погоды в соседних городах и на ближайших метеорологических станциях:

Погода в Сонгфельсхутте (Норвегия) (23 км)
Погода в Брате (Норвегия) (36 км)
Погода в Гротли (Норвегия) (53 км)
Погода в Бейтостолене (Норвегия) (56 км)
Погода в Скабу (Норвегия) (57 км)
Погода в Филефеле (Норвегия) (57 км)
Погода в Домбасе (Норвегия) (59 км)
Погода в Бьорли (Норвегия) (65 км)
Погода в Фокстугу (Норвегия) (68 км)
Погода в Локен и Волбу (Норвегия) (72 км)

Пояснения к столбцам:

Ветер - указаны скорость ветра в м/с - средняя за 10 мин, порывы в срок и между сроками (в фигурных скобках) и направление, откуда дует ветер: С - северный, СВ - северо-восточный, В - восточный, ЮВ - юго-восточный, Ю - южный, ЮЗ - юго-западный, З - западный, СЗ - северо-западный.
Видимость - горизонтальная дальность видимости в метрах или километрах. При видимости от 1 до 10 км при отсутствии осадков обычно наблюдается дымка, при ухудшении видимости до 1 км и менее - туман. В сухую погоду видимость может ухудшаться дымом, пылью или мглою.
Явления - указаны атмосферные явления, наблюдавшиеся в срок или в последний час перед сроком; фигурными скобками обозначены явления, наблюдавшиеся между сроками (за 1-3 часа до срока); квадратными скобками обозначены град или гололедные отложения с указанием их диаметра в мм.
Облачность - указаны через наклонную черту общая и нижняя облачность в баллах и высота нижней границы облаков в метрах; квадратными скобками обозначены формы облаков: Ci - перистые, Cs - перисто-слоистые, Cc - перисто-кучевые, Ac - высококучевые, As - высокослоистые, Sc - слоисто-кучевые, Ns - слоисто-дождевые, Cu - кучевые, Cb - кучево-дождевые. Подробнее классификацию облаков см. в Атласе облаков (PDF).
T - Температура воздуха - температура, измеренная на высоте 2 м над землей.
Td - Температура точки росы - температура, при понижении до которой содержащийся в воздухе водяной пар достигнет насыщения.
f - Относительная влажность воздуха - влажноcть воздуха, измеренная на высоте 2 м над землей.
Te - Эффективная температура - температура, которую ощущает одетый по сезону человек в тени. Характеристика душности погоды. При расчете учитывается влияние влажности воздуха и скорости ветра на теплоощущения человека.
Tes - Эффективная температура на солнце - температура, которую ощущает человек, с поправкой на солнечный нагрев. Характеристика знойности погоды. Зависит от высоты солнца над горизонтом, облачности и скорости ветра. Ночью, в пасмурную погоду, а также при ветре 12 м/с и более поправка равна нулю.
P - Атмосферное давление - приведенное к уровню моря атмосферное давление.
Po - Атмосферное давление - измеренное на уровне метеостанции атмосферное давление.
Tmin - Минимальная температура - минимум температуры воздуха на высоте 2 м над землей.
Tmax - Максимальная температура - максимум температуры воздуха на высоте 2 м над землей.
R - Количество осадков - Количество выпавших осадков за период времени, мм. При наведении курсора мыши на число - период времени, за который выпало указанное количество осадков.
R24 - Количество осадков - Количество выпавших осадков за 24 часа, мм.
S - Снежный покров - Высота снежного покрова, см. При наведении курсора мыши на число - состояние снежного покрова и степень покрытия местности в баллах.